Home   Weather   Bülach   Past weeks

Flag for Switzerland Past Weather in Bülach, Zurich, Switzerland — Yesterday and Last 2 Weeks

Now
31 °F

Chilly.


Feels Like: 26 °F
Forecast: 20 / 38 °F
Wind: 5 mph from North

Location: Zurich-Kloten

Current Time: Dec 6, 2016 at 9:08:47 pm

Latest Report: Dec 6, 2016 at 8:00 pm


Visibility: N/A

Pressure: 30.56 "Hg

Humidity: 97%

Dew Point: 30 °F

Location of BülachLocation

Past Weather in Bülach — Graph

°F

Bülach Temperature Yesterday

Maximum temperature yesterday: 34 °F (at 3:00 pm)
Minimum temperature yesterday: 25 °F (at 10:00 pm)
Average temperature yesterday: 31 °F

High & Low Weather Summary for the Past Weeks

 TemperatureHumidityPressure
High53 °F (Nov 23, 2:00 pm)100% (Nov 24, 2:00 am)30.65 "Hg (Nov 24, 2:00 am)
Low19 °F (Nov 30, 6:00 am)46% (Nov 28, 3:00 pm)29.67 "Hg (Nov 21, 7:00 pm)
Average37 °F84%30.22 "Hg
* Reported Nov 21 6:00 pm — Dec 6 6:00 pm, Bülach, Weather by CustomWeather, © 2016

Note: Actual official high and low records may vary slightly from our data, if they occured in-between our weather recording intervals... More about our weather records

Advertising

Bülach Weather History for the Previous 24 Hours

Scroll right to see more
 ConditionsComfort  
Time TempWeatherWind HumidityBarometerVisibility
6:00 pm
Tue, Dec 6
30 °FChilly.6 mph100%30.54 "HgN/A
5:00 pm30 °FChilly.6 mph97%30.53 "HgN/A
4:00 pm33 °FFog.5 mph90%30.51 "Hg4 mi
3:00 pm36 °FChilly.6 mph86%30.49 "HgN/A
2:00 pm34 °FChilly.6 mph90%30.49 "HgN/A
1:00 pm32 °FFog.5 mph95%30.50 "Hg1 mi
12:00 pm31 °FChilly.5 mph94%30.52 "HgN/A
11:00 am30 °FChilly.3 mph96%30.54 "HgN/A
10:00 am29 °FFog.3 mph97%30.54 "Hg1 mi
9:00 am28 °FChilly.3 mph98%30.53 "HgN/A
8:00 am28 °FChilly.2 mph94%30.52 "HgN/A
7:00 am29 °FFog.2 mph95%30.50 "Hg3 mi
6:00 am29 °FChilly.1 mph96%30.49 "HgN/A
5:00 am29 °FChilly.2 mph94%30.48 "HgN/A
4:00 am29 °FFog.2 mph95%30.48 "Hg1 mi
3:00 am29 °FChilly.3 mph98%30.48 "HgN/A
2:00 am29 °FChilly.3 mph100%30.47 "HgN/A
1:00 am28 °FFog.2 mph100%30.48 "Hg1 mi
12:00 am29 °FChilly.5 mph98%30.47 "HgN/A
11:00 pm
Mon, Dec 5
29 °FChilly.2 mph96%30.47 "HgN/A
10:00 pm25 °FFog.1 mph100%30.48 "Hg1 mi
9:00 pm30 °FChilly.2 mph93%30.46 "HgN/A
Weather by CustomWeather, © 2016

See weather overviewHow to use our weather pages